Tracking 22458 objects as of 2-Mar-2021
HD Live streaming from Space Station
objects crossing your sky now

SL-12 R/B(AUX MOTOR)

Track SL-12 R/B(AUX MOTOR) now!
10-day predictions


NORAD ID: 33472
Int'l Code: 2008-067G
Perigee: 268.4 km
Apogee: 18,800.1 km
Inclination: 64.5 °
Period: 332.7 minutes
Semi major axis: 15905 km
RCS: 0.6323 m2 (medium)
Launch date: December 25, 2008
Source: Commonwealth of Independent States (former USSR) (CIS)
Launch site: TYURATAM MISSILE AND SPACE COMPLEX (TTMTR)

Note: This is a ROCKET BODY
aabbcc
Your satellite tracking list
Your tracking list is empty




NASA's NSSDC Master Catalog

Two Line Element Set (TLE):
1 33472U 08067G   21059.53894685  .00003852  00000-0  45529-3 0  9991
2 33472  64.4663  97.7253 5825661 357.9152   0.5260  4.32805007187118
Source of the keplerian elements: AFSPC